M I D A S
Marine Information and Data Acquisition System
Tripno 2146 of the Zeeleeuw from 2011-07-15 08:13:18 to 2011-07-15 12:50:18
Back to CruiseResearch ActivitiesStationsMapUnderway DataData graphs

EquipmentUnitsComment
TimeDGPSUTC
LatitudeDGPSDM.mWGS84
LongitudeDGPSDM.mWGS84
HeadingGyrodeg 
SOGDGPSknotsSpeed over ground
COGDGPSdegCourse over ground
DepthEcho soundermeters200 kHz
Missing or incorrect values are displayed as -999
Navigation data collected by the RV Zeeleeuw from 2011-07-15 03:36:13 to 2011-07-15 12:59:38
                                                                                    Next 1000 lines
Time Latitude Longitude Heading SOG COG Depth
2011-07-15 03:36:23 51°13.64 2°56.015 127 0.2 343 -999
2011-07-15 03:36:28 51°13.641 2°56.015 127 0.2 338 -999
2011-07-15 03:36:33 51°13.641 2°56.015 126.8 0.2 344 -999
2011-07-15 03:36:38 51°13.641 2°56.015 126.8 0.2 340 -999
2011-07-15 03:36:43 51°13.641 2°56.015 126.6 0.2 345 -999
2011-07-15 03:36:48 51°13.644 2°56.007 126.6 0.2 332 -999
2011-07-15 03:36:54 51°13.645 2°56.007 126.5 0.2 340 -999
2011-07-15 03:36:59 51°13.645 2°56.007 126.5 0.2 337 -999
2011-07-15 03:37:04 51°13.645 2°56.007 126.5 0.2 341 -999
2011-07-15 03:37:09 51°13.645 2°56.008 126.4 0.2 342 -999
2011-07-15 03:37:14 51°13.646 2°56.008 126.4 0.2 338 -999
2011-07-15 03:37:19 51°13.646 2°56.008 126.4 0.2 343 -999
2011-07-15 03:37:24 51°13.647 2°56.007 126.3 0.2 344 -999
2011-07-15 03:37:29 51°13.648 2°56.006 126.3 0.2 346 -999
2011-07-15 03:37:34 51°13.648 2°56.005 126.3 0.2 343 -999
2011-07-15 03:37:39 51°13.649 2°56.004 126.3 0.2 346 -999
2011-07-15 03:37:44 51°13.649 2°56.004 126.3 0.2 338 -999
2011-07-15 03:37:49 51°13.649 2°56.005 126.3 0.2 334 -999
2011-07-15 03:37:54 51°13.649 2°56.006 126.4 0.2 337 -999
2011-07-15 03:37:59 51°13.649 2°56.007 126.4 0.2 338 -999
2011-07-15 03:38:04 51°13.649 2°56.007 126.4 0.2 336 -999
2011-07-15 03:38:09 51°13.649 2°56.007 126.4 0.2 340 -999
2011-07-15 03:38:14 51°13.65 2°56.006 126.4 0.2 340 -999
2011-07-15 03:38:19 51°13.65 2°56.005 126.4 0.2 342 -999
2011-07-15 03:38:24 51°13.651 2°56.006 126.3 0.2 341 -999
2011-07-15 03:38:29 51°13.651 2°56.007 126.2 0.2 344 -999
2011-07-15 03:38:34 51°13.65 2°56.007 126.1 0.2 343 -999
2011-07-15 03:38:39 51°13.65 2°56.008 126.1 0.2 339 -999
2011-07-15 03:38:44 51°13.65 2°56.007 126.1 0.2 338 -999
2011-07-15 03:38:49 51°13.65 2°56.007 126.1 0.2 334 -999
2011-07-15 03:38:54 51°13.651 2°56.006 126.1 0.2 337 -999
2011-07-15 03:38:59 51°13.651 2°56.006 126.1 0.3 338 -999
2011-07-15 03:39:04 51°13.652 2°56.006 126.1 0.3 338 -999
2011-07-15 03:39:09 51°13.652 2°56.006 126.2 0.3 339 -999
2011-07-15 03:39:14 51°13.652 2°56.006 126.2 0.3 341 -999
2011-07-15 03:39:19 51°13.652 2°56.006 126.1 0.2 340 -999
2011-07-15 03:39:24 51°13.653 2°56.006 126.1 0.2 342 -999
2011-07-15 03:39:29 51°13.653 2°56.006 126.1 0.3 343 -999
2011-07-15 03:39:34 51°13.653 2°56.006 126.1 0.3 342 -999
2011-07-15 03:39:39 51°13.653 2°56.006 126.1 0.3 341 -999
2011-07-15 03:39:44 51°13.653 2°56.006 126.2 0.3 341 -999
2011-07-15 03:39:44 51°13.653 2°56.006 126.4 -999 348 -999
2011-07-15 03:39:44 51°13.653 2°56.006 126.4 -999 164 -999
2011-07-15 03:39:44 51°13.653 2°56.006 126.6 -999 330 -999
2011-07-15 03:39:44 51°13.653 2°56.006 126.7 -999 344 -999
2011-07-15 03:39:44 51°13.653 2°56.006 126.7 -999 161 -999
2011-07-15 03:39:44 51°13.653 2°56.006 126.7 -999 165 -999
2011-07-15 03:39:44 51°13.653 2°56.006 126.7 -999 343 -999
2011-07-15 03:39:44 51°13.653 2°56.006 126.6 -999 350 -999
2011-07-15 03:39:44 51°13.653 2°56.006 126.5 -999 164 -999
2011-07-15 03:39:44 51°13.653 2°56.006 126.5 -999 338 -999
2011-07-15 03:39:44 51°13.653 2°56.006 126.5 -999 345 -999
2011-07-15 03:39:44 51°13.653 2°56.006 126.5 -999 162 -999
2011-07-15 03:40:49 51°13.653 2°56.006 126.5 -999 166 -999
2011-07-15 03:40:54 51°13.653 2°56.006 126.5 -999 343 -999
2011-07-15 03:40:59 51°13.653 2°56.006 126.6 -999 7 -999
2011-07-15 03:41:04 51°13.653 2°56.006 126.7 -999 164 -999
2011-07-15 03:41:09 51°13.653 2°56.006 126.8 -999 340 -999
2011-07-15 03:41:14 51°13.653 2°56.006 126.8 -999 345 -999
2011-07-15 03:41:18 51°13.653 2°56.006 126.8 -999 161 -999
2011-07-15 03:41:23 51°13.653 2°56.006 126.8 -999 165 -999
2011-07-15 03:41:28 51°13.653 2°56.006 126.8 -999 343 -999
2011-07-15 03:41:33 51°13.653 2°56.006 126.8 -999 346 -999
2011-07-15 03:41:37 51°13.653 2°56.006 126.8 -999 161 -999
2011-07-15 03:41:43 51°13.635 2°56.015 126.8 -999 208 -999
2011-07-15 03:41:48 51°13.635 2°56.015 126.8 -999 213 -999
2011-07-15 03:41:54 51°13.635 2°56.015 126.8 -999 202 -999
2011-07-15 03:41:58 51°13.635 2°56.015 126.7 0.1 215 -999
2011-07-15 03:42:03 51°13.635 2°56.015 126.7 -999 227 -999
2011-07-15 03:42:08 51°13.636 2°56.016 126.6 -999 268 -999
2011-07-15 03:42:13 51°13.636 2°56.016 126.6 -999 256 -999
2011-07-15 03:42:18 51°13.636 2°56.016 126.6 0.1 247 -999
2011-07-15 03:42:23 51°13.636 2°56.016 126.6 -999 274 -999
2011-07-15 03:42:28 51°13.636 2°56.016 126.6 -999 293 -999
2011-07-15 03:42:33 51°13.636 2°56.016 126.6 -999 354 -999
2011-07-15 03:42:38 51°13.636 2°56.016 126.6 -999 259 -999
2011-07-15 03:42:43 51°13.636 2°56.016 126.6 -999 312 -999
2011-07-15 03:42:48 51°13.636 2°56.016 126.6 -999 309 -999
2011-07-15 03:42:54 51°13.636 2°56.016 126.5 -999 294 -999
2011-07-15 03:42:59 51°13.636 2°56.016 126.5 -999 52 -999
2011-07-15 03:43:04 51°13.635 2°56.016 126.5 -999 6 -999
2011-07-15 03:43:08 51°13.635 2°56.016 126.4 -999 288 -999
2011-07-15 03:43:14 51°13.635 2°56.016 126.4 -999 289 -999
2011-07-15 03:43:19 51°13.636 2°56.016 126.4 -999 163 -999
2011-07-15 03:43:24 51°13.636 2°56.016 126.4 -999 156 -999
2011-07-15 03:43:29 51°13.636 2°56.016 126.4 -999 206 -999
2011-07-15 03:43:34 51°13.636 2°56.016 126.4 -999 162 -999
2011-07-15 03:43:39 51°13.636 2°56.017 126.4 -999 176 -999
2011-07-15 03:43:43 51°13.636 2°56.016 126.4 -999 200 -999
2011-07-15 03:43:49 51°13.635 2°56.016 126.4 -999 275 -999
2011-07-15 03:43:53 51°13.635 2°56.016 126.4 -999 329 -999
2011-07-15 03:43:58 51°13.635 2°56.016 126.4 -999 10 -999
2011-07-15 03:44:03 51°13.635 2°56.016 126.4 -999 1 -999
2011-07-15 03:44:08 51°13.635 2°56.016 126.4 -999 353 -999
2011-07-15 03:44:13 51°13.636 2°56.016 126.4 -999 144 -999
2011-07-15 03:44:18 51°13.636 2°56.016 126.4 -999 113 -999
2011-07-15 03:44:23 51°13.636 2°56.016 126.4 -999 298 -999
2011-07-15 03:44:28 51°13.635 2°56.016 126.4 -999 164 -999
2011-07-15 03:44:33 51°13.635 2°56.016 126.4 -999 163 -999
2011-07-15 03:44:38 51°13.635 2°56.016 126.4 -999 153 -999
2011-07-15 03:44:43 51°13.635 2°56.016 126.4 -999 147 -999
2011-07-15 03:44:48 51°13.635 2°56.016 126.3 -999 140 -999
2011-07-15 03:44:53 51°13.635 2°56.016 126.3 -999 206 -999
2011-07-15 03:44:58 51°13.635 2°56.016 126.3 -999 206 -999
2011-07-15 03:45:03 51°13.635 2°56.016 126.3 -999 272 -999
2011-07-15 03:45:08 51°13.635 2°56.016 126.3 -999 296 -999
2011-07-15 03:45:14 51°13.635 2°56.016 126.3 -999 304 -999
2011-07-15 03:45:19 51°13.635 2°56.016 126.3 0.1 307 -999
2011-07-15 03:45:24 51°13.635 2°56.016 126.3 0.1 328 -999
2011-07-15 03:45:28 51°13.635 2°56.016 126.2 -999 280 -999
2011-07-15 03:45:33 51°13.635 2°56.016 126 -999 26 -999
2011-07-15 03:45:38 51°13.635 2°56.016 125.9 -999 24 -999
2011-07-15 03:45:43 51°13.635 2°56.016 125.9 -999 1 -999
2011-07-15 03:45:48 51°13.635 2°56.016 125.9 -999 69 -999
2011-07-15 03:45:53 51°13.635 2°56.016 125.9 -999 68 -999
2011-07-15 03:45:58 51°13.635 2°56.016 126 -999 183 -999
2011-07-15 03:46:03 51°13.635 2°56.016 126.2 0.1 226 -999
2011-07-15 03:46:07 51°13.635 2°56.016 126.4 -999 181 -999
2011-07-15 03:46:13 51°13.635 2°56.016 126.4 -999 247 -999
2011-07-15 03:46:19 51°13.635 2°56.016 126.5 -999 344 -999
2011-07-15 03:46:24 51°13.635 2°56.016 126.5 -999 189 -999
2011-07-15 03:46:29 51°13.635 2°56.016 126.5 -999 16 -999
2011-07-15 03:46:33 51°13.635 2°56.016 126.4 -999 137 -999
2011-07-15 03:46:39 51°13.635 2°56.016 126.4 -999 80 -999
2011-07-15 03:46:43 51°13.635 2°56.016 126.4 -999 130 -999
2011-07-15 03:46:48 51°13.635 2°56.016 126.4 -999 23 -999
2011-07-15 03:46:53 51°13.635 2°56.016 126.4 -999 321 -999
2011-07-15 03:46:58 51°13.635 2°56.016 126.4 -999 227 -999
2011-07-15 03:47:03 51°13.635 2°56.016 126.4 -999 135 -999
2011-07-15 03:47:08 51°13.635 2°56.016 126.4 -999 298 -999
2011-07-15 03:47:13 51°13.635 2°56.016 126.5 0.1 79 -999
2011-07-15 03:47:18 51°13.635 2°56.016 126.6 -999 59 -999
2011-07-15 03:47:23 51°13.635 2°56.016 126.6 -999 11 -999
2011-07-15 03:47:28 51°13.635 2°56.017 126.6 -999 50 -999
2011-07-15 03:47:33 51°13.635 2°56.017 126.6 -999 26 -999
2011-07-15 03:47:38 51°13.635 2°56.017 126.6 -999 67 -999
2011-07-15 03:47:43 51°13.635 2°56.017 126.5 0.1 46 -999
2011-07-15 03:47:48 51°13.635 2°56.017 126.5 -999 17 -999
2011-07-15 03:47:53 51°13.635 2°56.017 126.4 -999 97 -999
2011-07-15 03:47:58 51°13.635 2°56.017 126.4 -999 186 -999
2011-07-15 03:48:03 51°13.635 2°56.017 126.4 -999 173 -999
2011-07-15 03:48:08 51°13.635 2°56.017 126.4 -999 224 -999
2011-07-15 03:48:13 51°13.635 2°56.017 126.5 0.1 222 -999
2011-07-15 03:48:18 51°13.635 2°56.017 126.6 -999 64 -999
2011-07-15 03:48:23 51°13.635 2°56.017 126.7 -999 27 -999
2011-07-15 03:48:29 51°13.635 2°56.017 126.8 -999 132 -999
2011-07-15 03:48:34 51°13.635 2°56.017 126.8 -999 163 -999
2011-07-15 03:48:38 51°13.635 2°56.017 126.7 0.1 291 -999
2011-07-15 03:48:43 51°13.635 2°56.017 126.6 -999 235 -999
2011-07-15 03:48:48 51°13.635 2°56.017 126.5 0.1 221 -999
2011-07-15 03:48:53 51°13.635 2°56.017 126.4 -999 326 -999
2011-07-15 03:48:58 51°13.636 2°56.017 126.3 -999 34 -999
2011-07-15 03:49:04 51°13.635 2°56.018 126.3 0.1 120 -999
2011-07-15 03:49:09 51°13.635 2°56.017 126.3 -999 170 -999
2011-07-15 03:49:14 51°13.635 2°56.017 126.3 -999 202 -999
2011-07-15 03:49:19 51°13.635 2°56.017 126.3 -999 100 -999
2011-07-15 03:49:24 51°13.635 2°56.017 126.4 -999 13 -999
2011-07-15 03:49:29 51°13.636 2°56.017 126.4 -999 234 -999
2011-07-15 03:49:33 51°13.635 2°56.017 126.5 -999 152 -999
2011-07-15 03:49:39 51°13.636 2°56.017 126.6 -999 144 -999
2011-07-15 03:49:44 51°13.636 2°56.017 126.6 0.1 195 -999
2011-07-15 03:49:49 51°13.636 2°56.017 126.6 -999 167 -999
2011-07-15 03:49:53 51°13.635 2°56.017 126.5 -999 198 -999
2011-07-15 03:49:58 51°13.635 2°56.017 126.4 -999 158 -999
2011-07-15 03:50:03 51°13.635 2°56.017 126.4 -999 192 -999
2011-07-15 03:50:09 51°13.635 2°56.017 126.2 -999 186 -999
2011-07-15 03:50:13 51°13.635 2°56.017 126.2 0.1 197 -999
2011-07-15 03:50:18 51°13.635 2°56.017 126.1 -999 232 -999
2011-07-15 03:50:23 51°13.635 2°56.017 126 -999 225 -999
2011-07-15 03:50:28 51°13.635 2°56.017 125.9 -999 161 -999
2011-07-15 03:50:33 51°13.635 2°56.017 125.9 -999 346 -999
2011-07-15 03:50:38 51°13.635 2°56.016 125.8 -999 340 -999
2011-07-15 03:50:43 51°13.635 2°56.016 125.7 -999 238 -999
2011-07-15 03:50:48 51°13.635 2°56.016 125.7 -999 211 -999
2011-07-15 03:50:53 51°13.635 2°56.016 125.7 -999 306 -999
2011-07-15 03:50:58 51°13.635 2°56.016 125.6 -999 91 -999
2011-07-15 03:51:03 51°13.635 2°56.016 125.6 -999 109 -999
2011-07-15 03:51:08 51°13.635 2°56.016 125.6 -999 196 -999
2011-07-15 03:51:13 51°13.636 2°56.016 125.5 -999 171 -999
2011-07-15 03:51:18 51°13.636 2°56.016 125.5 -999 231 -999
2011-07-15 03:51:23 51°13.636 2°56.016 125.5 -999 5 -999
2011-07-15 03:51:29 51°13.636 2°56.016 125.5 -999 284 -999
2011-07-15 03:51:34 51°13.635 2°56.016 125.5 -999 276 -999
2011-07-15 03:51:38 51°13.635 2°56.016 125.5 -999 263 -999
2011-07-15 03:51:44 51°13.635 2°56.016 125.5 -999 338 -999
2011-07-15 03:51:48 51°13.635 2°56.016 125.5 -999 349 -999
2011-07-15 03:51:53 51°13.635 2°56.016 125.5 -999 153 -999
2011-07-15 03:51:59 51°13.635 2°56.016 125.4 -999 171 -999
2011-07-15 03:52:03 51°13.635 2°56.016 125.4 -999 179 -999
2011-07-15 03:52:08 51°13.635 2°56.016 125.3 -999 179 -999
2011-07-15 03:52:14 51°13.635 2°56.016 125.3 -999 210 -999
2011-07-15 03:52:19 51°13.635 2°56.016 125.2 -999 297 -999
2011-07-15 03:52:23 51°13.635 2°56.016 125.2 -999 282 -999
2011-07-15 03:52:28 51°13.635 2°56.016 125.2 -999 255 -999
2011-07-15 03:52:33 51°13.636 2°56.016 125.2 -999 334 -999
2011-07-15 03:52:38 51°13.635 2°56.016 125.3 -999 224 -999
2011-07-15 03:52:43 51°13.635 2°56.016 125.3 -999 22 -999
2011-07-15 03:52:48 51°13.635 2°56.016 125.3 -999 71 -999
2011-07-15 03:52:53 51°13.635 2°56.016 125.3 -999 32 -999
2011-07-15 03:52:58 51°13.636 2°56.016 125.3 -999 16 -999
2011-07-15 03:53:03 51°13.635 2°56.016 125.3 -999 257 -999
2011-07-15 03:53:08 51°13.635 2°56.016 125.3 -999 169 -999
2011-07-15 03:53:13 51°13.635 2°56.016 125.3 -999 179 -999
2011-07-15 03:53:18 51°13.635 2°56.016 125.3 -999 58 -999
2011-07-15 03:53:23 51°13.635 2°56.016 125.4 -999 203 -999
2011-07-15 03:53:28 51°13.635 2°56.016 125.4 -999 237 -999
2011-07-15 03:53:33 51°13.635 2°56.016 125.6 -999 240 -999
2011-07-15 03:53:38 51°13.635 2°56.016 125.7 -999 324 -999
2011-07-15 03:53:43 51°13.635 2°56.016 125.7 -999 246 -999
2011-07-15 03:53:48 51°13.635 2°56.016 125.8 -999 291 -999
2011-07-15 03:53:54 51°13.635 2°56.016 125.9 -999 314 -999
2011-07-15 03:53:59 51°13.635 2°56.017 126.1 -999 1 -999
2011-07-15 03:54:03 51°13.635 2°56.017 126.1 -999 171 -999
2011-07-15 03:54:08 51°13.635 2°56.017 126.2 -999 122 -999
2011-07-15 03:54:13 51°13.635 2°56.016 126.2 0.1 205 -999
2011-07-15 03:54:18 51°13.635 2°56.017 126.2 -999 105 -999
2011-07-15 03:54:23 51°13.635 2°56.017 126.2 -999 110 -999
2011-07-15 03:54:28 51°13.635 2°56.017 126.2 -999 80 -999
2011-07-15 03:54:33 51°13.635 2°56.017 126.2 -999 216 -999
2011-07-15 03:54:38 51°13.635 2°56.016 126.3 -999 215 -999
2011-07-15 03:54:43 51°13.635 2°56.016 126.4 -999 238 -999
2011-07-15 03:54:48 51°13.635 2°56.017 126.5 -999 2 -999
2011-07-15 03:54:53 51°13.635 2°56.017 126.5 -999 339 -999
2011-07-15 03:54:58 51°13.635 2°56.017 126.5 -999 2 -999
2011-07-15 03:55:03 51°13.635 2°56.017 126.4 -999 339 -999
2011-07-15 03:55:08 51°13.635 2°56.017 126.2 -999 32 -999
2011-07-15 03:55:13 51°13.635 2°56.017 126.2 -999 319 -999
2011-07-15 03:55:18 51°13.635 2°56.017 126 -999 330 -999
2011-07-15 03:55:23 51°13.635 2°56.017 126 -999 329 -999
2011-07-15 03:55:28 51°13.635 2°56.017 126 -999 181 -999
2011-07-15 03:55:33 51°13.635 2°56.016 126 -999 208 -999
2011-07-15 03:55:38 51°13.635 2°56.016 126 -999 230 -999
2011-07-15 03:55:43 51°13.635 2°56.017 126 -999 129 -999
2011-07-15 03:55:48 51°13.635 2°56.016 126 -999 346 -999
2011-07-15 03:55:54 51°13.635 2°56.016 126 -999 328 -999
2011-07-15 03:55:58 51°13.635 2°56.016 126.1 -999 175 -999
2011-07-15 03:56:03 51°13.635 2°56.016 126.3 -999 207 -999
2011-07-15 03:56:08 51°13.635 2°56.016 126.4 -999 178 -999
2011-07-15 03:56:13 51°13.636 2°56.017 126.4 -999 179 -999
2011-07-15 03:56:18 51°13.636 2°56.017 126.4 -999 146 -999
2011-07-15 03:56:23 51°13.636 2°56.017 126.4 -999 147 -999
2011-07-15 03:56:28 51°13.636 2°56.017 126.4 -999 155 -999
2011-07-15 03:56:33 51°13.636 2°56.017 126.4 -999 136 -999
2011-07-15 03:56:39 51°13.636 2°56.017 126.4 -999 63 -999
2011-07-15 03:56:43 51°13.636 2°56.016 126.4 -999 276 -999
2011-07-15 03:56:48 51°13.636 2°56.016 126.4 -999 260 -999
2011-07-15 03:56:54 51°13.635 2°56.016 126.4 -999 291 -999
2011-07-15 03:56:59 51°13.635 2°56.016 126.4 -999 221 -999
2011-07-15 03:57:03 51°13.636 2°56.016 126.5 -999 236 -999
2011-07-15 03:57:08 51°13.636 2°56.016 126.5 -999 260 -999
2011-07-15 03:57:13 51°13.636 2°56.016 126.5 -999 291 -999
2011-07-15 03:57:18 51°13.636 2°56.016 126.5 -999 308 -999
2011-07-15 03:57:23 51°13.636 2°56.016 126.4 -999 183 -999
2011-07-15 03:57:28 51°13.636 2°56.016 126.4 -999 181 -999
2011-07-15 03:57:33 51°13.636 2°56.016 126.2 -999 59 -999
2011-07-15 03:57:38 51°13.636 2°56.016 126.2 -999 111 -999
2011-07-15 03:57:44 51°13.636 2°56.016 126.2 -999 153 -999
2011-07-15 03:57:49 51°13.636 2°56.016 126.2 -999 10 -999
2011-07-15 03:57:54 51°13.636 2°56.016 126.2 -999 247 -999
2011-07-15 03:57:59 51°13.636 2°56.016 126.3 -999 226 -999
2011-07-15 03:58:03 51°13.636 2°56.016 126.4 -999 242 -999
2011-07-15 03:58:09 51°13.636 2°56.016 126.4 -999 230 -999
2011-07-15 03:58:14 51°13.636 2°56.016 126.5 -999 197 -999
2011-07-15 03:58:19 51°13.636 2°56.015 126.5 -999 47 -999
2011-07-15 03:58:23 51°13.636 2°56.015 126.5 0.1 193 -999
2011-07-15 03:58:28 51°13.636 2°56.015 126.5 -999 129 -999
2011-07-15 03:58:33 51°13.635 2°56.015 126.5 -999 170 -999
2011-07-15 03:58:38 51°13.635 2°56.015 126.5 -999 177 -999
2011-07-15 03:58:43 51°13.635 2°56.015 126.5 -999 208 -999
2011-07-15 03:58:48 51°13.636 2°56.015 126.6 -999 301 -999
2011-07-15 03:58:53 51°13.636 2°56.015 126.6 -999 259 -999
2011-07-15 03:58:58 51°13.636 2°56.015 126.6 -999 146 -999
2011-07-15 03:59:03 51°13.636 2°56.015 126.6 -999 213 -999
2011-07-15 03:59:08 51°13.636 2°56.015 126.6 -999 129 -999
2011-07-15 03:59:13 51°13.636 2°56.015 126.5 -999 176 -999
2011-07-15 03:59:18 51°13.636 2°56.015 126.5 -999 36 -999
2011-07-15 03:59:23 51°13.636 2°56.015 126.5 -999 147 -999
2011-07-15 03:59:28 51°13.636 2°56.015 126.5 -999 1 -999
2011-07-15 03:59:33 51°13.636 2°56.015 126.5 -999 231 -999
2011-07-15 03:59:39 51°13.636 2°56.015 126.6 -999 184 -999
2011-07-15 03:59:43 51°13.636 2°56.015 126.8 -999 172 -999
2011-07-15 03:59:48 51°13.636 2°56.015 127 -999 275 -999
2011-07-15 03:59:53 51°13.636 2°56.015 127.1 -999 294 -999
2011-07-15 03:59:58 51°13.636 2°56.015 127.1 -999 334 -999
2011-07-15 04:00:03 51°13.636 2°56.015 127 -999 99 -999
2011-07-15 04:00:08 51°13.636 2°56.015 126.8 -999 84 -999
2011-07-15 04:00:13 51°13.636 2°56.015 126.6 -999 193 -999
2011-07-15 04:00:18 51°13.636 2°56.015 126.5 -999 351 -999
2011-07-15 04:00:23 51°13.636 2°56.015 126.4 -999 261 -999
2011-07-15 04:00:28 51°13.636 2°56.015 126.3 -999 311 -999
2011-07-15 04:00:33 51°13.636 2°56.015 126.2 -999 224 -999
2011-07-15 04:00:38 51°13.636 2°56.015 126.2 -999 103 -999
2011-07-15 04:00:43 51°13.636 2°56.015 126.1 -999 331 -999
2011-07-15 04:00:48 51°13.636 2°56.015 126.1 -999 156 -999
2011-07-15 04:00:53 51°13.636 2°56.015 126.1 -999 165 -999
2011-07-15 04:00:58 51°13.636 2°56.015 126.1 -999 118 -999
2011-07-15 04:01:03 51°13.636 2°56.016 126.1 -999 143 -999
2011-07-15 04:01:08 51°13.636 2°56.016 126.1 -999 157 -999
2011-07-15 04:01:14 51°13.636 2°56.016 126.1 -999 347 -999
2011-07-15 04:01:19 51°13.636 2°56.016 126.3 -999 248 -999
2011-07-15 04:01:23 51°13.636 2°56.016 126.4 -999 354 -999
2011-07-15 04:01:28 51°13.636 2°56.016 126.4 -999 289 -999
2011-07-15 04:01:34 51°13.636 2°56.016 126.4 -999 122 -999
2011-07-15 04:01:38 51°13.636 2°56.016 126.4 -999 208 -999
2011-07-15 04:01:43 51°13.636 2°56.016 126.4 -999 267 -999
2011-07-15 04:01:49 51°13.636 2°56.016 126.4 -999 222 -999
2011-07-15 04:01:54 51°13.636 2°56.016 126.4 -999 39 -999
2011-07-15 04:01:58 51°13.636 2°56.016 126.4 -999 260 -999
2011-07-15 04:02:03 51°13.636 2°56.016 126.4 -999 355 -999
2011-07-15 04:02:09 51°13.636 2°56.015 126.4 -999 303 -999
2011-07-15 04:02:13 51°13.636 2°56.015 126.4 -999 275 -999
2011-07-15 04:02:18 51°13.636 2°56.015 126.4 -999 289 -999
2011-07-15 04:02:24 51°13.636 2°56.016 126.4 -999 350 -999
2011-07-15 04:02:29 51°13.636 2°56.016 126.2 -999 306 -999
2011-07-15 04:02:33 51°13.636 2°56.016 126.1 -999 358 -999
2011-07-15 04:02:39 51°13.636 2°56.016 126 -999 257 -999
2011-07-15 04:02:44 51°13.636 2°56.016 125.9 -999 14 -999
2011-07-15 04:02:49 51°13.636 2°56.016 125.7 -999 118 -999
2011-07-15 04:02:54 51°13.636 2°56.016 125.7 -999 71 -999
2011-07-15 04:02:58 51°13.636 2°56.016 125.7 -999 34 -999
2011-07-15 04:03:03 51°13.636 2°56.016 125.7 -999 27 -999
2011-07-15 04:03:08 51°13.636 2°56.016 125.7 -999 259 -999
2011-07-15 04:03:13 51°13.637 2°56.016 125.8 -999 337 -999
2011-07-15 04:03:18 51°13.636 2°56.016 125.9 0.1 229 -999
2011-07-15 04:03:23 51°13.637 2°56.015 126.1 -999 280 -999
2011-07-15 04:03:28 51°13.636 2°56.015 126.2 -999 257 -999
2011-07-15 04:03:33 51°13.637 2°56.015 126.3 -999 307 -999
2011-07-15 04:03:38 51°13.637 2°56.016 126.3 -999 248 -999
2011-07-15 04:03:43 51°13.636 2°56.016 126.3 -999 126 -999
2011-07-15 04:03:48 51°13.636 2°56.016 126.1 -999 79 -999
2011-07-15 04:03:54 51°13.636 2°56.016 126 -999 85 -999
2011-07-15 04:03:58 51°13.636 2°56.016 125.9 -999 140 -999
2011-07-15 04:04:04 51°13.636 2°56.016 125.9 -999 96 -999
2011-07-15 04:04:09 51°13.636 2°56.016 125.9 -999 80 -999
2011-07-15 04:04:13 51°13.636 2°56.016 125.9 -999 11 -999
2011-07-15 04:04:18 51°13.636 2°56.016 126.1 -999 242 -999
2011-07-15 04:04:23 51°13.636 2°56.016 126.3 0.1 228 -999
2011-07-15 04:04:29 51°13.636 2°56.016 126.4 0.1 193 -999
2011-07-15 04:04:33 51°13.636 2°56.016 126.4 0.1 203 -999
2011-07-15 04:04:38 51°13.636 2°56.015 126.5 -999 288 -999
2011-07-15 04:04:43 51°13.636 2°56.015 126.5 -999 338 -999
2011-07-15 04:04:48 51°13.636 2°56.015 126.5 -999 25 -999
2011-07-15 04:04:53 51°13.636 2°56.016 126.4 -999 121 -999
2011-07-15 04:04:58 51°13.637 2°56.016 126.3 -999 45 -999
2011-07-15 04:05:03 51°13.637 2°56.016 126.2 -999 79 -999
2011-07-15 04:05:08 51°13.637 2°56.016 126.1 -999 110 -999
2011-07-15 04:05:13 51°13.637 2°56.016 126.1 -999 214 -999
2011-07-15 04:05:19 51°13.637 2°56.016 126.1 -999 185 -999
2011-07-15 04:05:23 51°13.637 2°56.015 126.1 -999 278 -999
2011-07-15 04:05:28 51°13.637 2°56.015 126.1 -999 251 -999
2011-07-15 04:05:33 51°13.637 2°56.015 126.2 -999 294 -999
2011-07-15 04:05:38 51°13.637 2°56.015 126.3 -999 271 -999
2011-07-15 04:05:43 51°13.637 2°56.015 126.3 -999 196 -999
2011-07-15 04:05:48 51°13.637 2°56.015 126.3 -999 168 -999
2011-07-15 04:05:53 51°13.636 2°56.015 126.3 -999 171 -999
2011-07-15 04:05:58 51°13.636 2°56.016 126.3 0.1 183 -999
2011-07-15 04:06:03 51°13.636 2°56.016 126.3 -999 148 -999
2011-07-15 04:06:08 51°13.636 2°56.016 126.3 -999 148 -999
2011-07-15 04:06:13 51°13.636 2°56.016 126.3 -999 250 -999
2011-07-15 04:06:18 51°13.636 2°56.016 126.4 -999 292 -999
2011-07-15 04:06:23 51°13.636 2°56.016 126.4 -999 216 -999
2011-07-15 04:06:28 51°13.636 2°56.016 126.4 -999 336 -999
2011-07-15 04:06:33 51°13.636 2°56.016 126.4 -999 239 -999
2011-07-15 04:06:39 51°13.637 2°56.016 126.4 -999 309 -999
2011-07-15 04:06:44 51°13.637 2°56.016 126.4 -999 226 -999
2011-07-15 04:06:48 51°13.637 2°56.016 126.3 -999 9 -999
2011-07-15 04:06:53 51°13.637 2°56.016 126.2 -999 176 -999
2011-07-15 04:06:58 51°13.636 2°56.016 126.1 -999 120 -999
2011-07-15 04:07:03 51°13.636 2°56.016 126.1 -999 176 -999
2011-07-15 04:07:08 51°13.636 2°56.016 126.1 -999 209 -999
2011-07-15 04:07:13 51°13.636 2°56.016 126.3 -999 203 -999
2011-07-15 04:07:18 51°13.636 2°56.016 126.4 -999 49 -999
2011-07-15 04:07:23 51°13.636 2°56.016 126.4 -999 278 -999
2011-07-15 04:07:28 51°13.636 2°56.016 126.5 -999 26 -999
2011-07-15 04:07:33 51°13.636 2°56.016 126.5 -999 254 -999
2011-07-15 04:07:38 51°13.636 2°56.016 126.5 -999 181 -999
2011-07-15 04:07:43 51°13.636 2°56.016 126.5 -999 157 -999
2011-07-15 04:07:48 51°13.636 2°56.016 126.4 -999 53 -999
2011-07-15 04:07:53 51°13.636 2°56.016 126.4 -999 131 -999
2011-07-15 04:07:58 51°13.636 2°56.016 126.4 -999 99 -999
2011-07-15 04:08:03 51°13.636 2°56.016 126.4 -999 209 -999
2011-07-15 04:08:08 51°13.636 2°56.016 126.4 -999 181 -999
2011-07-15 04:08:13 51°13.636 2°56.016 126.4 -999 318 -999
2011-07-15 04:08:18 51°13.636 2°56.015 126.4 -999 340 -999
2011-07-15 04:08:24 51°13.636 2°56.016 126.4 -999 9 -999
2011-07-15 04:08:29 51°13.636 2°56.015 126.4 -999 229 -999
2011-07-15 04:08:33 51°13.636 2°56.015 126.4 -999 294 -999
2011-07-15 04:08:39 51°13.636 2°56.015 126.4 -999 246 -999
2011-07-15 04:08:43 51°13.636 2°56.015 126.4 -999 261 -999
2011-07-15 04:08:48 51°13.636 2°56.015 126.4 -999 236 -999
2011-07-15 04:08:53 51°13.636 2°56.015 126.4 -999 349 -999
2011-07-15 04:08:58 51°13.636 2°56.015 126.4 -999 320 -999
2011-07-15 04:09:03 51°13.636 2°56.015 126.4 -999 301 -999
2011-07-15 04:09:08 51°13.636 2°56.015 126.3 -999 231 -999
2011-07-15 04:09:13 51°13.636 2°56.015 126.2 -999 330 -999
2011-07-15 04:09:18 51°13.636 2°56.015 126.1 -999 214 -999
2011-07-15 04:09:23 51°13.636 2°56.015 126.1 -999 111 -999
2011-07-15 04:09:28 51°13.636 2°56.015 126.1 -999 338 -999
2011-07-15 04:09:34 51°13.636 2°56.015 126.1 -999 2 -999
2011-07-15 04:09:39 51°13.636 2°56.015 126.1 -999 198 -999
2011-07-15 04:09:43 51°13.636 2°56.015 126.1 -999 354 -999
2011-07-15 04:09:48 51°13.636 2°56.015 126.1 -999 312 -999
2011-07-15 04:09:53 51°13.636 2°56.015 126.1 -999 251 -999
2011-07-15 04:09:58 51°13.636 2°56.015 126.1 0.1 202 -999
2011-07-15 04:10:03 51°13.636 2°56.015 125.9 0.1 176 -999
2011-07-15 04:10:08 51°13.636 2°56.015 125.9 -999 323 -999
2011-07-15 04:10:13 51°13.636 2°56.015 125.8 -999 18 -999
2011-07-15 04:10:18 51°13.636 2°56.015 125.7 -999 152 -999
2011-07-15 04:10:23 51°13.636 2°56.015 125.7 -999 228 -999
2011-07-15 04:10:28 51°13.636 2°56.015 125.7 -999 168 -999
2011-07-15 04:10:33 51°13.636 2°56.015 125.7 -999 298 -999
2011-07-15 04:10:38 51°13.636 2°56.015 125.9 -999 279 -999
2011-07-15 04:10:44 51°13.636 2°56.015 126.1 -999 292 -999
2011-07-15 04:10:48 51°13.636 2°56.015 126.3 -999 249 -999
2011-07-15 04:10:53 51°13.636 2°56.015 126.4 -999 268 -999
2011-07-15 04:10:58 51°13.636 2°56.015 126.4 -999 137 -999
2011-07-15 04:11:03 51°13.636 2°56.016 126.4 -999 176 -999
2011-07-15 04:11:08 51°13.636 2°56.016 126.4 -999 78 -999
2011-07-15 04:11:13 51°13.636 2°56.016 126.5 -999 162 -999
2011-07-15 04:11:18 51°13.636 2°56.016 126.7 -999 356 -999
2011-07-15 04:11:23 51°13.636 2°56.016 126.8 -999 182 -999
2011-07-15 04:11:28 51°13.636 2°56.016 127.1 -999 131 -999
2011-07-15 04:11:33 51°13.636 2°56.016 127.1 -999 195 -999
2011-07-15 04:11:38 51°13.636 2°56.016 127.1 -999 86 -999
2011-07-15 04:11:43 51°13.636 2°56.016 127.1 -999 165 -999
2011-07-15 04:11:48 51°13.636 2°56.016 127.1 -999 342 -999
2011-07-15 04:11:53 51°13.636 2°56.016 127.1 -999 215 -999
2011-07-15 04:11:58 51°13.636 2°56.016 127.1 -999 160 -999
2011-07-15 04:12:03 51°13.637 2°56.016 127.1 -999 250 -999
2011-07-15 04:12:08 51°13.637 2°56.016 126.9 -999 265 -999
2011-07-15 04:12:13 51°13.637 2°56.016 126.9 -999 154 -999
2011-07-15 04:12:18 51°13.637 2°56.016 126.9 -999 265 -999
2011-07-15 04:12:23 51°13.637 2°56.016 126.9 -999 183 -999
2011-07-15 04:12:28 51°13.637 2°56.016 127 -999 207 -999
2011-07-15 04:12:33 51°13.636 2°56.016 127.1 -999 189 -999
2011-07-15 04:12:38 51°13.637 2°56.017 127.1 -999 208 -999
2011-07-15 04:12:44 51°13.636 2°56.017 127.1 0.1 185 -999
2011-07-15 04:12:49 51°13.637 2°56.016 127.1 -999 208 -999
2011-07-15 04:12:54 51°13.637 2°56.016 127.1 -999 335 -999
2011-07-15 04:12:58 51°13.637 2°56.016 127 -999 222 -999
2011-07-15 04:13:03 51°13.637 2°56.017 126.9 -999 73 -999
2011-07-15 04:13:08 51°13.637 2°56.017 126.8 -999 225 -999
2011-07-15 04:13:13 51°13.637 2°56.017 126.6 -999 295 -999
2011-07-15 04:13:18 51°13.637 2°56.017 126.4 -999 207 -999
2011-07-15 04:13:23 51°13.637 2°56.017 126.4 -999 98 -999
2011-07-15 04:13:28 51°13.636 2°56.017 126.4 -999 186 -999
2011-07-15 04:13:34 51°13.636 2°56.017 126.4 -999 235 -999
2011-07-15 04:13:39 51°13.636 2°56.017 126.4 0.1 241 -999
2011-07-15 04:13:44 51°13.636 2°56.017 126.6 -999 290 -999
2011-07-15 04:13:49 51°13.636 2°56.017 126.7 -999 237 -999
2011-07-15 04:13:54 51°13.636 2°56.017 126.7 -999 267 -999
2011-07-15 04:13:59 51°13.636 2°56.017 126.8 -999 108 -999
2011-07-15 04:14:04 51°13.636 2°56.017 126.6 -999 206 -999
2011-07-15 04:14:08 51°13.636 2°56.017 126.4 -999 154 -999
2011-07-15 04:14:13 51°13.636 2°56.017 126.3 -999 136 -999
2011-07-15 04:14:18 51°13.637 2°56.017 126.2 -999 174 -999
2011-07-15 04:14:23 51°13.637 2°56.017 126.1 -999 135 -999
2011-07-15 04:14:28 51°13.636 2°56.017 126.1 -999 207 -999
2011-07-15 04:14:33 51°13.636 2°56.017 126.1 -999 249 -999
2011-07-15 04:14:38 51°13.637 2°56.017 126.2 -999 267 -999
2011-07-15 04:14:43 51°13.637 2°56.017 126.3 -999 266 -999
2011-07-15 04:14:48 51°13.637 2°56.017 126.4 -999 296 -999
2011-07-15 04:14:53 51°13.637 2°56.017 126.4 -999 299 -999
2011-07-15 04:14:58 51°13.637 2°56.017 126.4 -999 344 -999
2011-07-15 04:15:04 51°13.637 2°56.017 126.4 0.1 323 -999
2011-07-15 04:15:08 51°13.637 2°56.017 126.4 0.1 320 -999
2011-07-15 04:15:13 51°13.637 2°56.017 126.2 -999 346 -999
2011-07-15 04:15:18 51°13.637 2°56.017 126 -999 350 -999
2011-07-15 04:15:23 51°13.637 2°56.017 125.8 -999 3 -999
2011-07-15 04:15:28 51°13.637 2°56.017 125.7 -999 155 -999
2011-07-15 04:15:33 51°13.637 2°56.017 125.6 -999 99 -999
2011-07-15 04:15:38 51°13.637 2°56.017 125.4 -999 143 -999
2011-07-15 04:15:44 51°13.637 2°56.017 125.4 -999 157 -999
2011-07-15 04:15:49 51°13.637 2°56.017 125.5 -999 181 -999
2011-07-15 04:15:53 51°13.637 2°56.017 125.7 -999 266 -999
2011-07-15 04:15:58 51°13.636 2°56.017 126 0.1 235 -999
2011-07-15 04:16:04 51°13.636 2°56.017 126.3 -999 305 -999
2011-07-15 04:16:09 51°13.636 2°56.017 126.4 -999 224 -999
2011-07-15 04:16:13 51°13.636 2°56.017 126.4 -999 157 -999
2011-07-15 04:16:18 51°13.636 2°56.017 126.5 -999 164 -999
2011-07-15 04:16:23 51°13.636 2°56.017 126.4 -999 32 -999
2011-07-15 04:16:28 51°13.636 2°56.017 126.3 0.1 159 -999
2011-07-15 04:16:33 51°13.636 2°56.017 126.2 -999 65 -999
2011-07-15 04:16:38 51°13.636 2°56.018 126.1 -999 112 -999
2011-07-15 04:16:43 51°13.636 2°56.018 126.1 -999 167 -999
2011-07-15 04:16:48 51°13.636 2°56.018 126.1 -999 202 -999
2011-07-15 04:16:53 51°13.636 2°56.018 126.1 0.1 218 -999
2011-07-15 04:16:58 51°13.636 2°56.018 126.2 -999 212 -999
2011-07-15 04:17:03 51°13.636 2°56.018 126.3 -999 253 -999
2011-07-15 04:17:08 51°13.636 2°56.018 126.3 -999 287 -999
2011-07-15 04:17:13 51°13.636 2°56.018 126.3 -999 247 -999
2011-07-15 04:17:18 51°13.636 2°56.018 126.3 -999 153 -999
2011-07-15 04:17:23 51°13.636 2°56.018 126.1 -999 86 -999
2011-07-15 04:17:28 51°13.636 2°56.018 126 -999 69 -999
2011-07-15 04:17:34 51°13.636 2°56.018 125.8 -999 67 -999
2011-07-15 04:17:39 51°13.636 2°56.018 125.8 0.1 146 -999
2011-07-15 04:17:44 51°13.636 2°56.019 125.8 -999 127 -999
2011-07-15 04:17:48 51°13.636 2°56.019 125.9 -999 180 -999
2011-07-15 04:17:53 51°13.636 2°56.019 126.1 -999 146 -999
2011-07-15 04:17:59 51°13.636 2°56.019 126.3 -999 199 -999
2011-07-15 04:18:04 51°13.636 2°56.019 126.4 -999 216 -999
2011-07-15 04:18:08 51°13.636 2°56.019 126.5 -999 200 -999
2011-07-15 04:18:13 51°13.636 2°56.019 126.6 -999 178 -999
2011-07-15 04:18:19 51°13.637 2°56.019 126.6 -999 160 -999
2011-07-15 04:18:23 51°13.637 2°56.019 126.5 -999 359 -999
2011-07-15 04:18:28 51°13.637 2°56.019 126.4 -999 327 -999
2011-07-15 04:18:34 51°13.637 2°56.019 126.3 -999 149 -999
2011-07-15 04:18:39 51°13.637 2°56.019 126.2 -999 128 -999
2011-07-15 04:18:43 51°13.637 2°56.019 126.2 -999 155 -999
2011-07-15 04:18:49 51°13.637 2°56.019 126.2 -999 69 -999
2011-07-15 04:18:54 51°13.637 2°56.019 126.2 -999 289 -999
2011-07-15 04:18:59 51°13.637 2°56.019 126.2 -999 152 -999
2011-07-15 04:19:03 51°13.637 2°56.019 126.2 -999 304 -999
2011-07-15 04:19:08 51°13.637 2°56.02 126.2 -999 253 -999
2011-07-15 04:19:13 51°13.637 2°56.02 126.2 0.1 198 -999
2011-07-15 04:19:18 51°13.637 2°56.02 126.2 -999 177 -999
2011-07-15 04:19:23 51°13.637 2°56.02 126.2 -999 181 -999
2011-07-15 04:19:28 51°13.637 2°56.02 126.2 -999 241 -999
2011-07-15 04:19:33 51°13.637 2°56.02 126.2 -999 230 -999
2011-07-15 04:19:38 51°13.637 2°56.02 126.2 -999 349 -999
2011-07-15 04:19:43 51°13.637 2°56.02 126.2 -999 181 -999
2011-07-15 04:19:48 51°13.637 2°56.02 126.1 -999 170 -999
2011-07-15 04:19:53 51°13.637 2°56.02 126.1 -999 165 -999
2011-07-15 04:19:58 51°13.637 2°56.02 126 -999 20 -999
2011-07-15 04:20:03 51°13.637 2°56.02 126 -999 345 -999
2011-07-15 04:20:08 51°13.637 2°56.02 126 -999 267 -999
2011-07-15 04:20:13 51°13.637 2°56.02 126 0.1 239 -999
2011-07-15 04:20:18 51°13.637 2°56.02 126.1 -999 199 -999
2011-07-15 04:20:23 51°13.637 2°56.02 126.1 0.1 218 -999
2011-07-15 04:20:28 51°13.637 2°56.02 126.1 -999 22 -999
2011-07-15 04:20:33 51°13.637 2°56.02 126.1 -999 307 -999
2011-07-15 04:20:38 51°13.637 2°56.02 126 0.1 356 -999
2011-07-15 04:20:44 51°13.637 2°56.02 125.8 -999 315 -999
2011-07-15 04:20:49 51°13.637 2°56.02 125.7 -999 5 -999
2011-07-15 04:20:54 51°13.637 2°56.02 125.6 -999 13 -999
2011-07-15 04:20:59 51°13.637 2°56.02 125.5 -999 47 -999
2011-07-15 04:21:04 51°13.637 2°56.02 125.4 -999 151 -999
2011-07-15 04:21:09 51°13.637 2°56.02 125.3 -999 292 -999
2011-07-15 04:21:13 51°13.637 2°56.02 125.3 -999 309 -999
2011-07-15 04:21:19 51°13.636 2°56.02 125.3 -999 241 -999
2011-07-15 04:21:24 51°13.637 2°56.02 125.5 -999 204 -999
2011-07-15 04:21:29 51°13.637 2°56.019 125.6 -999 279 -999
2011-07-15 04:21:33 51°13.637 2°56.019 125.7 -999 298 -999
2011-07-15 04:21:38 51°13.637 2°56.019 125.8 -999 294 -999
2011-07-15 04:21:44 51°13.637 2°56.019 125.8 -999 317 -999
2011-07-15 04:21:49 51°13.636 2°56.019 125.8 -999 56 -999
2011-07-15 04:21:54 51°13.637 2°56.019 125.8 -999 33 -999
2011-07-15 04:21:58 51°13.636 2°56.019 125.7 -999 136 -999
2011-07-15 04:22:04 51°13.636 2°56.019 125.7 -999 93 -999
2011-07-15 04:22:08 51°13.636 2°56.019 125.6 -999 163 -999
2011-07-15 04:22:14 51°13.636 2°56.019 125.6 -999 93 -999
2011-07-15 04:22:19 51°13.636 2°56.019 125.7 -999 170 -999
2011-07-15 04:22:23 51°13.636 2°56.019 125.8 -999 206 -999
2011-07-15 04:22:28 51°13.636 2°56.019 126 -999 214 -999
2011-07-15 04:22:33 51°13.636 2°56.019 126.1 -999 158 -999
2011-07-15 04:22:39 51°13.636 2°56.019 126.1 -999 208 -999
2011-07-15 04:22:43 51°13.636 2°56.019 126.1 -999 36 -999
2011-07-15 04:22:48 51°13.636 2°56.019 126.1 -999 223 -999
2011-07-15 04:22:53 51°13.636 2°56.019 126.1 -999 117 -999
2011-07-15 04:22:58 51°13.636 2°56.019 126 -999 168 -999
2011-07-15 04:23:03 51°13.636 2°56.019 125.9 -999 84 -999
2011-07-15 04:23:08 51°13.636 2°56.019 125.9 -999 149 -999
2011-07-15 04:23:13 51°13.636 2°56.019 125.9 -999 191 -999
2011-07-15 04:23:18 51°13.636 2°56.019 126.1 -999 257 -999
2011-07-15 04:23:23 51°13.636 2°56.019 126.3 -999 271 -999
2011-07-15 04:23:28 51°13.636 2°56.019 126.4 -999 339 -999
2011-07-15 04:23:33 51°13.636 2°56.019 126.4 0.1 177 -999
2011-07-15 04:23:38 51°13.636 2°56.019 126.4 -999 126 -999
2011-07-15 04:23:43 51°13.636 2°56.019 126.4 0.1 184 -999
2011-07-15 04:23:48 51°13.636 2°56.019 126.4 -999 124 -999
2011-07-15 04:23:53 51°13.636 2°56.019 126.4 -999 91 -999
2011-07-15 04:23:59 51°13.636 2°56.019 126.4 0.1 350 -999
2011-07-15 04:24:04 51°13.636 2°56.019 126.4 -999 271 -999
2011-07-15 04:24:09 51°13.636 2°56.019 126.4 0.1 356 -999
2011-07-15 04:24:14 51°13.636 2°56.019 126.4 -999 295 -999
2011-07-15 04:24:19 51°13.636 2°56.019 126.4 -999 242 -999
2011-07-15 04:24:23 51°13.636 2°56.018 126.4 0.1 219 -999
2011-07-15 04:24:28 51°13.636 2°56.018 126.4 -999 191 -999
2011-07-15 04:24:34 51°13.636 2°56.018 126.4 -999 145 -999
2011-07-15 04:24:38 51°13.636 2°56.018 126.5 -999 58 -999
2011-07-15 04:24:43 51°13.636 2°56.018 126.5 -999 192 -999
2011-07-15 04:24:48 51°13.636 2°56.018 126.5 -999 271 -999
2011-07-15 04:24:54 51°13.636 2°56.018 126.6 -999 254 -999
2011-07-15 04:24:58 51°13.636 2°56.018 126.5 -999 199 -999
2011-07-15 04:25:03 51°13.636 2°56.018 126.4 -999 232 -999
2011-07-15 04:25:08 51°13.636 2°56.018 126.4 -999 321 -999
2011-07-15 04:25:13 51°13.636 2°56.018 126.2 -999 196 -999
2011-07-15 04:25:18 51°13.636 2°56.018 126.1 -999 105 -999
2011-07-15 04:25:23 51°13.636 2°56.018 125.9 -999 50 -999
2011-07-15 04:25:28 51°13.636 2°56.018 125.8 -999 23 -999
2011-07-15 04:25:33 51°13.636 2°56.018 125.7 -999 254 -999
2011-07-15 04:25:38 51°13.636 2°56.018 125.7 -999 212 -999
2011-07-15 04:25:43 51°13.636 2°56.018 125.6 -999 337 -999
2011-07-15 04:25:49 51°13.636 2°56.018 125.6 -999 346 -999
2011-07-15 04:25:54 51°13.636 2°56.018 125.6 -999 274 -999
2011-07-15 04:25:59 51°13.636 2°56.018 125.6 -999 270 -999
2011-07-15 04:26:04 51°13.636 2°56.018 125.6 -999 358 -999
2011-07-15 04:26:09 51°13.636 2°56.017 125.6 -999 346 -999
2011-07-15 04:26:14 51°13.636 2°56.017 125.5 -999 317 -999
2011-07-15 04:26:19 51°13.636 2°56.017 125.4 -999 64 -999
2011-07-15 04:26:24 51°13.636 2°56.017 125.2 -999 275 -999
2011-07-15 04:26:29 51°13.636 2°56.017 125.1 -999 296 -999
2011-07-15 04:26:34 51°13.636 2°56.017 124.9 -999 168 -999
2011-07-15 04:26:39 51°13.636 2°56.017 124.9 -999 103 -999
2011-07-15 04:26:44 51°13.636 2°56.017 124.9 -999 98 -999
2011-07-15 04:26:49 51°13.636 2°56.017 124.9 -999 238 -999
2011-07-15 04:26:53 51°13.636 2°56.017 124.9 -999 186 -999
2011-07-15 04:26:58 51°13.636 2°56.017 124.9 -999 233 -999
2011-07-15 04:27:03 51°13.636 2°56.016 124.9 -999 227 -999
2011-07-15 04:27:08 51°13.636 2°56.016 124.9 -999 262 -999
2011-07-15 04:27:13 51°13.636 2°56.016 124.9 -999 303 -999
2011-07-15 04:27:18 51°13.636 2°56.016 124.9 -999 252 -999
2011-07-15 04:27:23 51°13.636 2°56.016 124.9 -999 198 -999
2011-07-15 04:27:28 51°13.636 2°56.016 124.9 -999 199 -999
2011-07-15 04:27:33 51°13.636 2°56.016 124.9 -999 156 -999
2011-07-15 04:27:38 51°13.636 2°56.016 124.9 -999 113 -999
2011-07-15 04:27:43 51°13.636 2°56.016 124.9 -999 98 -999
2011-07-15 04:27:48 51°13.636 2°56.016 124.9 -999 107 -999
2011-07-15 04:27:53 51°13.636 2°56.016 124.9 -999 307 -999
2011-07-15 04:27:58 51°13.636 2°56.016 125.1 -999 253 -999
2011-07-15 04:28:03 51°13.636 2°56.016 125.2 -999 348 -999
2011-07-15 04:28:08 51°13.636 2°56.016 125.3 -999 216 -999
2011-07-15 04:28:13 51°13.636 2°56.016 125.5 -999 211 -999
2011-07-15 04:28:18 51°13.636 2°56.016 125.6 -999 182 -999
2011-07-15 04:28:23 51°13.636 2°56.016 125.7 -999 155 -999
2011-07-15 04:28:28 51°13.636 2°56.016 125.8 -999 209 -999
2011-07-15 04:28:33 51°13.636 2°56.016 126 -999 24 -999
2011-07-15 04:28:38 51°13.636 2°56.016 126.1 -999 137 -999
2011-07-15 04:28:43 51°13.636 2°56.017 126.2 -999 142 -999
2011-07-15 04:28:48 51°13.636 2°56.017 126.2 -999 205 -999
2011-07-15 04:28:53 51°13.636 2°56.016 126.2 -999 227 -999
2011-07-15 04:28:58 51°13.636 2°56.017 126.2 -999 76 -999
2011-07-15 04:29:03 51°13.636 2°56.016 126.1 -999 70 -999
2011-07-15 04:29:08 51°13.636 2°56.016 125.8 0.1 258 -999
2011-07-15 04:29:14 51°13.636 2°56.016 125.6 0.1 312 -999
2011-07-15 04:29:19 51°13.636 2°56.017 125.3 -999 24 -999
2011-07-15 04:29:24 51°13.636 2°56.016 125.1 -999 271 -999
2011-07-15 04:29:29 51°13.636 2°56.017 125.1 0.1 233 -999
2011-07-15 04:29:34 51°13.636 2°56.017 125.1 -999 102 -999
2011-07-15 04:29:39 51°13.636 2°56.017 125.1 0.1 207 -999
2011-07-15 04:29:44 51°13.636 2°56.017 125.4 0.1 141 -999
2011-07-15 04:29:48 51°13.636 2°56.017 125.8 0.1 191 -999
2011-07-15 04:29:54 51°13.636 2°56.017 126.2 0.1 186 -999
2011-07-15 04:29:59 51°13.636 2°56.017 126.4 0.1 150 -999
2011-07-15 04:30:03 51°13.636 2°56.017 126.5 0.1 131 -999
2011-07-15 04:30:08 51°13.636 2°56.018 126.6 0.1 93 -999
2011-07-15 04:30:13 51°13.636 2°56.017 126.9 -999 137 -999
2011-07-15 04:30:18 51°13.636 2°56.017 127.2 -999 210 -999
2011-07-15 04:30:23 51°13.636 2°56.017 127.3 -999 327 -999
2011-07-15 04:30:29 51°13.636 2°56.017 127.1 -999 318 -999
2011-07-15 04:30:33 51°13.636 2°56.017 126.9 -999 313 -999
2011-07-15 04:30:38 51°13.636 2°56.017 126.7 -999 242 -999
2011-07-15 04:30:43 51°13.636 2°56.017 126.4 -999 257 -999
2011-07-15 04:30:48 51°13.636 2°56.017 126.2 -999 228 -999
2011-07-15 04:30:53 51°13.636 2°56.017 126 -999 246 -999
2011-07-15 04:30:58 51°13.636 2°56.017 125.7 0.1 207 -999
2011-07-15 04:31:03 51°13.636 2°56.017 125.6 -999 215 -999
2011-07-15 04:31:08 51°13.636 2°56.017 125.5 0.1 255 -999
2011-07-15 04:31:13 51°13.636 2°56.017 125.2 -999 303 -999
2011-07-15 04:31:18 51°13.636 2°56.017 125.1 -999 14 -999
2011-07-15 04:31:23 51°13.636 2°56.017 124.9 -999 289 -999
2011-07-15 04:31:28 51°13.636 2°56.017 124.8 -999 324 -999
2011-07-15 04:31:33 51°13.636 2°56.017 124.6 0.1 7 -999
2011-07-15 04:31:38 51°13.636 2°56.017 124.5 0.1 12 -999
2011-07-15 04:31:43 51°13.636 2°56.017 124.3 -999 306 -999
2011-07-15 04:31:48 51°13.636 2°56.017 124.2 -999 59 -999
2011-07-15 04:31:53 51°13.636 2°56.017 124.1 -999 53 -999
2011-07-15 04:31:58 51°13.636 2°56.017 124 -999 326 -999
2011-07-15 04:32:03 51°13.636 2°56.017 123.8 -999 45 -999
2011-07-15 04:32:08 51°13.636 2°56.017 123.7 -999 230 -999
2011-07-15 04:32:13 51°13.636 2°56.017 123.6 -999 231 -999
2011-07-15 04:32:18 51°13.636 2°56.017 123.5 -999 293 -999
2011-07-15 04:32:23 51°13.636 2°56.017 123.5 0.1 34 -999
2011-07-15 04:32:28 51°13.636 2°56.017 123.5 -999 355 -999
2011-07-15 04:32:33 51°13.636 2°56.017 123.5 -999 359 -999
2011-07-15 04:32:38 51°13.636 2°56.017 123.5 -999 293 -999
2011-07-15 04:32:43 51°13.636 2°56.017 123.5 -999 155 -999
2011-07-15 04:32:48 51°13.636 2°56.017 123.7 -999 49 -999
2011-07-15 04:32:53 51°13.636 2°56.017 123.7 -999 64 -999
2011-07-15 04:32:58 51°13.636 2°56.017 123.9 -999 100 -999
2011-07-15 04:33:03 51°13.636 2°56.017 124 -999 98 -999
2011-07-15 04:33:08 51°13.636 2°56.017 124.2 0.1 172 -999
2011-07-15 04:33:14 51°13.636 2°56.017 124.2 -999 163 -999
2011-07-15 04:33:19 51°13.636 2°56.017 124.2 -999 51 -999
2011-07-15 04:33:24 51°13.636 2°56.017 124.2 -999 125 -999
2011-07-15 04:33:29 51°13.636 2°56.017 124.2 -999 26 -999
2011-07-15 04:33:34 51°13.636 2°56.017 124.2 -999 268 -999
2011-07-15 04:33:39 51°13.636 2°56.017 124.3 -999 215 -999
2011-07-15 04:33:44 51°13.636 2°56.017 124.3 -999 93 -999
2011-07-15 04:33:49 51°13.636 2°56.017 124.3 -999 13 -999
2011-07-15 04:33:54 51°13.636 2°56.017 124.3 0.1 195 -999
2011-07-15 04:33:59 51°13.636 2°56.017 124.3 -999 120 -999
2011-07-15 04:34:04 51°13.636 2°56.017 124.3 -999 79 -999
2011-07-15 04:34:08 51°13.636 2°56.017 124.5 -999 53 -999
2011-07-15 04:34:13 51°13.636 2°56.017 124.7 -999 1 -999
2011-07-15 04:34:18 51°13.636 2°56.017 124.9 0.1 345 -999
2011-07-15 04:34:23 51°13.636 2°56.017 125 -999 324 -999
2011-07-15 04:34:28 51°13.636 2°56.017 125.2 -999 252 -999
2011-07-15 04:34:33 51°13.636 2°56.017 125.3 0.1 200 -999
2011-07-15 04:34:38 51°13.636 2°56.018 125.4 -999 81 -999
2011-07-15 04:34:43 51°13.636 2°56.018 125.4 -999 206 -999
2011-07-15 04:34:48 51°13.636 2°56.018 125.4 -999 196 -999
2011-07-15 04:34:53 51°13.636 2°56.018 125.5 -999 86 -999
2011-07-15 04:34:58 51°13.636 2°56.018 125.5 -999 60 -999
2011-07-15 04:35:03 51°13.636 2°56.018 125.5 -999 130 -999
2011-07-15 04:35:08 51°13.636 2°56.018 125.5 -999 131 -999
2011-07-15 04:35:13 51°13.636 2°56.018 125.5 -999 159 -999
2011-07-15 04:35:18 51°13.636 2°56.018 125.7 -999 14 -999
2011-07-15 04:35:23 51°13.636 2°56.018 126 0.1 357 -999
2011-07-15 04:35:28 51°13.636 2°56.018 126.1 -999 206 -999
2011-07-15 04:35:33 51°13.636 2°56.018 126.2 0.1 176 -999
2011-07-15 04:35:38 51°13.636 2°56.018 126.3 -999 158 -999
2011-07-15 04:35:43 51°13.636 2°56.018 126.3 -999 98 -999
2011-07-15 04:35:48 51°13.636 2°56.018 126.3 -999 169 -999
2011-07-15 04:35:53 51°13.636 2°56.018 126.3 0.1 207 -999
2011-07-15 04:35:58 51°13.636 2°56.018 126.3 0.1 208 -999
2011-07-15 04:36:03 51°13.636 2°56.018 126.3 -999 159 -999
2011-07-15 04:36:09 51°13.636 2°56.018 126.3 -999 146 -999
2011-07-15 04:36:13 51°13.636 2°56.018 126.3 -999 12 -999
2011-07-15 04:36:18 51°13.636 2°56.018 126.3 -999 357 -999
2011-07-15 04:36:23 51°13.636 2°56.018 126.3 -999 318 -999
2011-07-15 04:36:29 51°13.636 2°56.018 126.3 -999 216 -999
2011-07-15 04:36:33 51°13.636 2°56.018 126.3 0.1 178 -999
2011-07-15 04:36:39 51°13.636 2°56.018 126.2 -999 198 -999
2011-07-15 04:36:44 51°13.636 2°56.019 126.2 0.1 182 -999
2011-07-15 04:36:49 51°13.636 2°56.018 126.1 -999 99 -999
2011-07-15 04:36:54 51°13.636 2°56.018 126.1 -999 212 -999
2011-07-15 04:36:58 51°13.636 2°56.018 126 -999 215 -999
2011-07-15 04:37:04 51°13.636 2°56.018 126 -999 196 -999
2011-07-15 04:37:09 51°13.636 2°56.019 125.9 -999 33 -999
2011-07-15 04:37:13 51°13.636 2°56.018 125.8 0.1 359 -999
2011-07-15 04:37:19 51°13.636 2°56.018 125.8 -999 315 -999
2011-07-15 04:37:24 51°13.636 2°56.018 125.7 -999 248 -999
2011-07-15 04:37:29 51°13.636 2°56.018 125.6 -999 305 -999
2011-07-15 04:37:33 51°13.636 2°56.018 125.5 0.1 334 -999
2011-07-15 04:37:38 51°13.636 2°56.018 125.3 0.1 342 -999
2011-07-15 04:37:43 51°13.636 2°56.018 125.1 -999 351 -999
2011-07-15 04:37:48 51°13.636 2°56.018 124.9 -999 156 -999
2011-07-15 04:37:53 51°13.636 2°56.018 124.8 -999 69 -999
2011-07-15 04:37:58 51°13.636 2°56.018 124.7 0.1 26 -999
2011-07-15 04:38:03 51°13.636 2°56.018 124.6 -999 29 -999
2011-07-15 04:38:08 51°13.636 2°56.018 124.5 -999 346 -999
2011-07-15 04:38:13 51°13.636 2°56.018 124.4 -999 251 -999
2011-07-15 04:38:18 51°13.636 2°56.018 124.3 -999 219 -999
2011-07-15 04:38:23 51°13.636 2°56.018 124.3 -999 203 -999
2011-07-15 04:38:28 51°13.636 2°56.018 124.2 -999 354 -999
2011-07-15 04:38:33 51°13.636 2°56.018 124.2 -999 329 -999
2011-07-15 04:38:38 51°13.636 2°56.018 124.1 -999 83 -999
2011-07-15 04:38:43 51°13.636 2°56.018 123.9 -999 91 -999
2011-07-15 04:38:48 51°13.636 2°56.018 123.9 0.1 156 -999
2011-07-15 04:38:53 51°13.636 2°56.018 123.9 -999 130 -999
2011-07-15 04:38:58 51°13.636 2°56.018 123.9 -999 79 -999
2011-07-15 04:39:04 51°13.637 2°56.018 124.1 0.1 50 -999
2011-07-15 04:39:09 51°13.637 2°56.017 124.2 -999 22 -999
2011-07-15 04:39:13 51°13.636 2°56.017 124.5 -999 100 -999
2011-07-15 04:39:19 51°13.637 2°56.017 124.6 -999 21 -999
2011-07-15 04:39:23 51°13.636 2°56.017 124.8 -999 327 -999
2011-07-15 04:39:28 51°13.636 2°56.017 124.9 -999 115 -999
2011-07-15 04:39:33 51°13.636 2°56.017 125 -999 153 -999
2011-07-15 04:39:38 51°13.636 2°56.017 125.1 -999 177 -999
2011-07-15 04:39:43 51°13.636 2°56.017 125.1 0.1 151 -999
2011-07-15 04:39:48 51°13.636 2°56.017 125.2 -999 165 -999
2011-07-15 04:39:53 51°13.636 2°56.017 125.3 -999 69 -999
2011-07-15 04:39:59 51°13.636 2°56.017 125.5 -999 291 -999
2011-07-15 04:40:03 51°13.636 2°56.017 125.7 0.1 189 -999
2011-07-15 04:40:08 51°13.636 2°56.018 125.9 -999 173 -999
2011-07-15 04:40:13 51°13.636 2°56.017 126 -999 175 -999
2011-07-15 04:40:18 51°13.636 2°56.017 126.2 -999 110 -999
2011-07-15 04:40:23 51°13.636 2°56.017 126.2 0.1 36 -999
2011-07-15 04:40:28 51°13.636 2°56.017 126.2 -999 11 -999
2011-07-15 04:40:34 51°13.636 2°56.017 126.2 0.1 222 -999
2011-07-15 04:40:38 51°13.636 2°56.017 126.2 -999 222 -999
2011-07-15 04:40:44 51°13.636 2°56.017 126.2 -999 213 -999
2011-07-15 04:40:49 51°13.636 2°56.017 126.1 -999 129 -999
2011-07-15 04:40:53 51°13.636 2°56.017 126 0.1 343 -999
2011-07-15 04:40:59 51°13.636 2°56.017 125.8 -999 315 -999
2011-07-15 04:41:04 51°13.636 2°56.017 125.6 -999 338 -999
2011-07-15 04:41:08 51°13.636 2°56.017 125.5 -999 326 -999
2011-07-15 04:41:14 51°13.636 2°56.017 125.3 -999 351 -999
2011-07-15 04:41:19 51°13.636 2°56.017 125.3 -999 200 -999
2011-07-15 04:41:24 51°13.636 2°56.017 125.3 -999 159 -999
2011-07-15 04:41:28 51°13.636 2°56.017 125.3 -999 210 -999
2011-07-15 04:41:34 51°13.636 2°56.017 125.5 -999 40 -999
2011-07-15 04:41:39 51°13.637 2°56.017 125.6 -999 41 -999
2011-07-15 04:41:43 51°13.637 2°56.017 125.7 -999 15 -999
2011-07-15 04:41:48 51°13.636 2°56.017 125.7 -999 242 -999
2011-07-15 04:41:53 51°13.636 2°56.017 125.7 -999 50 -999
2011-07-15 04:41:58 51°13.637 2°56.017 125.7 -999 347 -999
2011-07-15 04:42:03 51°13.636 2°56.017 125.8 -999 119 -999
2011-07-15 04:42:08 51°13.636 2°56.017 126 -999 209 -999
2011-07-15 04:42:13 51°13.636 2°56.017 126 -999 49 -999
2011-07-15 04:42:18 51°13.636 2°56.017 126.2 -999 184 -999
2011-07-15 04:42:23 51°13.636 2°56.017 126.3 0.1 199 -999
2011-07-15 04:42:28 51°13.636 2°56.017 126.4 0.1 219 -999
2011-07-15 04:42:33 51°13.636 2°56.017 126.5 -999 108 -999
2011-07-15 04:42:39 51°13.636 2°56.017 126.5 -999 69 -999
2011-07-15 04:42:44 51°13.636 2°56.017 126.3 -999 95 -999
2011-07-15 04:42:49 51°13.636 2°56.017 126 -999 196 -999
2011-07-15 04:42:54 51°13.636 2°56.017 125.7 -999 12 -999
2011-07-15 04:42:59 51°13.637 2°56.017 125.7 -999 290 -999
2011-07-15 04:43:03 51°13.637 2°56.017 125.6 0.1 344 -999
2011-07-15 04:43:08 51°13.637 2°56.016 125.6 -999 319 -999
2011-07-15 04:43:14 51°13.637 2°56.016 125.6 0.1 336 -999
2011-07-15 04:43:19 51°13.637 2°56.016 125.7 0.1 270 -999
2011-07-15 04:43:24 51°13.637 2°56.016 125.7 -999 295 -999
2011-07-15 04:43:29 51°13.637 2°56.016 125.6 -999 15 -999
2011-07-15 04:43:33 51°13.637 2°56.016 125.5 0.1 37 -999
2011-07-15 04:43:39 51°13.637 2°56.016 125.3 -999 81 -999
2011-07-15 04:43:44 51°13.637 2°56.016 125.1 -999 242 -999
2011-07-15 04:43:49 51°13.637 2°56.016 125.1 -999 165 -999
2011-07-15 04:43:53 51°13.637 2°56.016 125 -999 174 -999
2011-07-15 04:43:59 51°13.637 2°56.016 125 -999 244 -999
2011-07-15 04:44:04 51°13.637 2°56.016 125 -999 9 -999
2011-07-15 04:44:09 51°13.637 2°56.016 125 -999 11 -999
2011-07-15 04:44:14 51°13.637 2°56.016 125.1 -999 177 -999
2011-07-15 04:44:19 51°13.637 2°56.016 125.2 -999 182 -999
2011-07-15 04:44:23 51°13.637 2°56.016 125.2 0.1 10 -999
2011-07-15 04:44:28 51°13.637 2°56.016 125.2 -999 350 -999
2011-07-15 04:44:34 51°13.637 2°56.016 125.2 0.1 179 -999
2011-07-15 04:44:39 51°13.637 2°56.016 125.2 -999 121 -999
2011-07-15 04:44:43 51°13.637 2°56.016 125.2 0.1 194 -999
2011-07-15 04:44:48 51°13.637 2°56.016 125.2 -999 171 -999
2011-07-15 04:44:53 51°13.637 2°56.016 125.2 -999 257 -999
2011-07-15 04:44:58 51°13.637 2°56.016 125.2 -999 225 -999
2011-07-15 04:45:03 51°13.637 2°56.016 125.2 -999 179 -999
2011-07-15 04:45:08 51°13.637 2°56.016 125.2 -999 4 -999
2011-07-15 04:45:13 51°13.637 2°56.016 125.2 0.1 21 -999
2011-07-15 04:45:18 51°13.637 2°56.016 125.1 0.1 4 -999
2011-07-15 04:45:23 51°13.637 2°56.016 125.1 -999 317 -999
2011-07-15 04:45:28 51°13.637 2°56.016 125 -999 282 -999
2011-07-15 04:45:33 51°13.637 2°56.017 124.9 -999 271 -999
2011-07-15 04:45:38 51°13.637 2°56.017 124.9 -999 155 -999
2011-07-15 04:45:43 51°13.637 2°56.017 124.9 0.1 189 -999
2011-07-15 04:45:48 51°13.637 2°56.017 124.9 -999 197 -999
2011-07-15 04:45:53 51°13.637 2°56.017 124.9 0.1 201 -999
2011-07-15 04:45:58 51°13.637 2°56.017 124.9 -999 236 -999
2011-07-15 04:46:03 51°13.636 2°56.018 124.9 -999 174 -999
2011-07-15 04:46:08 51°13.636 2°56.018 124.9 -999 167 -999
2011-07-15 04:46:13 51°13.636 2°56.018 124.9 0.1 223 -999
2011-07-15 04:46:18 51°13.636 2°56.018 124.9 -999 240 -999
2011-07-15 04:46:23 51°13.636 2°56.018 124.9 -999 345 -999
2011-07-15 04:46:28 51°13.636 2°56.018 124.9 -999 340 -999
2011-07-15 04:46:33 51°13.636 2°56.018 124.9 -999 303 -999
2011-07-15 04:46:38 51°13.636 2°56.018 124.9 -999 239 -999
2011-07-15 04:46:43 51°13.636 2°56.018 124.9 0.1 178 -999
2011-07-15 04:46:48 51°13.637 2°56.018 124.9 -999 124 -999
2011-07-15 04:46:53 51°13.637 2°56.018 124.9 -999 20 -999
2011-07-15 04:46:58 51°13.637 2°56.018 124.9 -999 246 -999
2011-07-15 04:47:03 51°13.637 2°56.018 124.9 -999 261 -999
2011-07-15 04:47:08 51°13.637 2°56.018 124.9 -999 13 -999
2011-07-15 04:47:13 51°13.637 2°56.018 124.9 -999 329 -999
2011-07-15 04:47:18 51°13.637 2°56.018 124.9 -999 254 -999
2011-07-15 04:47:23 51°13.637 2°56.018 125.1 -999 180 -999
2011-07-15 04:47:28 51°13.637 2°56.018 125.3 -999 158 -999
2011-07-15 04:47:33 51°13.637 2°56.017 125.5 -999 158 -999
2011-07-15 04:47:38 51°13.637 2°56.017 125.7 -999 139 -999
2011-07-15 04:47:43 51°13.637 2°56.017 125.8 -999 43 -999
2011-07-15 04:47:49 51°13.637 2°56.017 126 -999 219 -999
2011-07-15 04:47:54 51°13.637 2°56.017 126.1 -999 9 -999
2011-07-15 04:47:59 51°13.637 2°56.017 126.2 -999 215 -999
2011-07-15 04:48:04 51°13.637 2°56.017 126.2 0.1 174 -999
2011-07-15 04:48:09 51°13.637 2°56.017 126.2 -999 108 -999
2011-07-15 04:48:13 51°13.637 2°56.017 126.3 0.1 347 -999
2011-07-15 04:48:18 51°13.637 2°56.018 126.3 -999 338 -999
2011-07-15 04:48:23 51°13.636 2°56.018 126.3 -999 173 -999
2011-07-15 04:48:28 51°13.636 2°56.018 126.3 -999 63 -999
2011-07-15 04:48:33 51°13.637 2°56.018 126.3 -999 353 -999
2011-07-15 04:48:38 51°13.636 2°56.018 126.3 0.1 215 -999
2011-07-15 04:48:43 51°13.637 2°56.018 126.2 -999 169 -999
2011-07-15 04:48:48 51°13.637 2°56.018 126.1 -999 329 -999
2011-07-15 04:48:53 51°13.637 2°56.018 126.1 -999 238 -999
2011-07-15 04:48:59 51°13.637 2°56.018 126 -999 339 -999
2011-07-15 04:49:03 51°13.637 2°56.018 126 -999 193 -999
2011-07-15 04:49:08 51°13.637 2°56.018 126 0.1 172 -999
2011-07-15 04:49:14 51°13.636 2°56.018 126 0.1 187 -999
2011-07-15 04:49:18 51°13.637 2°56.018 126 -999 271 -999
2011-07-15 04:49:23 51°13.637 2°56.017 126.1 0.1 262 -999
2011-07-15 04:49:28 51°13.637 2°56.017 126.2 0.1 223 -999
2011-07-15 04:49:33 51°13.637 2°56.018 126.2 0.1 197 -999
2011-07-15 04:49:38 51°13.637 2°56.018 126.2 -999 327 -999
2011-07-15 04:49:43 51°13.637 2°56.018 126.2 0.1 338 -999
2011-07-15 04:49:48 51°13.637 2°56.018 126.2 0.1 292 -999
2011-07-15 04:49:53 51°13.637 2°56.018 126.1 0.1 141 -999
2011-07-15 04:49:58 51°13.637 2°56.018 126.1 0.1 195 -999
2011-07-15 04:50:03 51°13.637 2°56.018 126.1 0.1 200 -999
2011-07-15 04:50:08 51°13.637 2°56.018 126.1 -999 165 -999
2011-07-15 04:50:13 51°13.637 2°56.018 126.1 -999 285 -999
2011-07-15 04:50:19 51°13.637 2°56.018 126.1 -999 221 -999
2011-07-15 04:50:24 51°13.637 2°56.018 126.1 0.1 183 -999
2011-07-15 04:50:28 51°13.637 2°56.018 126.1 -999 23 -999
2011-07-15 04:50:34 51°13.637 2°56.018 126 0.1 316 -999
2011-07-15 04:50:38 51°13.637 2°56.018 125.9 -999 326 -999
2011-07-15 04:50:43 51°13.637 2°56.018 125.8 -999 20 -999
2011-07-15 04:50:48 51°13.637 2°56.018 125.7 -999 45 -999
2011-07-15 04:50:53 51°13.637 2°56.018 125.7 -999 321 -999
2011-07-15 04:50:58 51°13.637 2°56.018 125.7 -999 250 -999
2011-07-15 04:51:03 51°13.637 2°56.018 125.7 -999 74 -999
2011-07-15 04:51:08 51°13.637 2°56.018 125.7 0.1 355 -999
2011-07-15 04:51:13 51°13.637 2°56.018 125.7 0.1 347 -999
2011-07-15 04:51:18 51°13.637 2°56.018 125.6 -999 60 -999
2011-07-15 04:51:23 51°13.637 2°56.018 125.6 -999 212 -999
2011-07-15 04:51:28 51°13.637 2°56.018 125.5 -999 220 -999
2011-07-15 04:51:33 51°13.637 2°56.018 125.4 -999 230 -999
2011-07-15 04:51:38 51°13.637 2°56.018 125.2 -999 253 -999
2011-07-15 04:51:43 51°13.637 2°56.018 125.1 -999 194 -999
2011-07-15 04:51:48 51°13.637 2°56.018 125.1 -999 240 -999
2011-07-15 04:51:54 51°13.637 2°56.018 125.1 0.1 302 -999
2011-07-15 04:51:59 51°13.637 2°56.018 125.1 0.1 265 -999
2011-07-15 04:52:04 51°13.637 2°56.018 125.1 -999 35 -999
2011-07-15 04:52:09 51°13.637 2°56.018 125.2 -999 25 -999
2011-07-15 04:52:13 51°13.637 2°56.018 125.3 -999 141 -999
2011-07-15 04:52:19 51°13.637 2°56.018 125.4 -999 158 -999
2011-07-15 04:52:23 51°13.636 2°56.018 125.4 -999 227 -999
2011-07-15 04:52:28 51°13.636 2°56.019 125.5 -999 124 -999
2011-07-15 04:52:33 51°13.636 2°56.019 125.5 -999 108 -999
2011-07-15 04:52:38 51°13.636 2°56.018 125.5 -999 38 -999
2011-07-15 04:52:43 51°13.636 2°56.018 125.4 -999 287 -999
2011-07-15 04:52:49 51°13.637 2°56.018 125.3 0.1 344 -999
2011-07-15 04:52:53 51°13.637 2°56.018 125.2 0.1 349 -999
2011-07-15 04:52:58 51°13.637 2°56.018 125.1 0.1 343 -999
2011-07-15 04:53:03 51°13.637 2°56.018 125 0.1 326 -999
2011-07-15 04:53:09 51°13.636 2°56.018 124.9 -999 248 -999
2011-07-15 04:53:13 51°13.636 2°56.018 124.9 -999 42 -999
2011-07-15 04:53:18 51°13.636 2°56.018 124.9 -999 328 -999
2011-07-15 04:53:23 51°13.636 2°56.018 124.9 -999 316 -999
2011-07-15 04:53:28 51°13.636 2°56.018 124.9 -999 246 -999
2011-07-15 04:53:33 51°13.637 2°56.018 124.9 -999 255 -999
2011-07-15 04:53:38 51°13.637 2°56.017 124.9 0.1 252 -999
2011-07-15 04:53:43 51°13.637 2°56.017 124.9 -999 177 -999
2011-07-15 04:53:48 51°13.637 2°56.017 124.9 -999 124 -999
2011-07-15 04:53:54 51°13.637 2°56.017 124.8 -999 61 -999
2011-07-15 04:53:59 51°13.637 2°56.017 124.8 -999 274 -999
2011-07-15 04:54:03 51°13.637 2°56.017 124.7 -999 183 -999
2011-07-15 04:54:09 51°13.637 2°56.017 124.7 -999 286 -999
2011-07-15 04:54:14 51°13.637 2°56.017 124.8 -999 319 -999
2011-07-15 04:54:18 51°13.637 2°56.017 124.8 -999 98 -999
2011-07-15 04:54:24 51°13.637 2°56.017 124.9 -999 99 -999
2011-07-15 04:54:29 51°13.637 2°56.017 125.1 -999 173 -999
2011-07-15 04:54:33 51°13.637 2°56.017 125.4 -999 104 -999
2011-07-15 04:54:38 51°13.637 2°56.017 125.6 -999 338 -999
2011-07-15 04:54:44 51°13.637 2°56.017 125.7 -999 337 -999
2011-07-15 04:54:48 51°13.637 2°56.017 125.8 -999 170 -999
2011-07-15 04:54:53 51°13.637 2°56.017 125.8 -999 77 -999
2011-07-15 04:54:58 51°13.637 2°56.017 125.8 -999 126 -999
2011-07-15 04:55:03 51°13.637 2°56.017 125.8 0.1 168 -999
2011-07-15 04:55:08 51°13.637 2°56.017 125.7 0.1 172 -999
2011-07-15 04:55:13 51°13.637 2°56.016 125.7 0.1 191 -999
2011-07-15 04:55:18 51°13.637 2°56.016 125.7 0.1 181 -999
2011-07-15 04:55:23 51°13.637 2°56.016 125.7 -999 118 -999
2011-07-15 04:55:29 51°13.638 2°56.016 125.7 -999 51 -999
2011-07-15 04:55:34 51°13.638 2°56.016 125.7 -999 211 -999
2011-07-15 04:55:39 51°13.638 2°56.016 125.6 -999 189 -999
2011-07-15 04:55:44 51°13.638 2°56.016 125.5 0.1 237 -999
2011-07-15 04:55:49 51°13.638 2°56.016 125.4 -999 267 -999
2011-07-15 04:55:54 51°13.638 2°56.016 125.4 0.1 177 -999
2011-07-15 04:55:59 51°13.638 2°56.016 125.3 0.1 186 -999
2011-07-15 04:56:04 51°13.638 2°56.016 125.2 -999 241 -999
2011-07-15 04:56:09 51°13.638 2°56.015 125.1 0.1 335 -999
2011-07-15 04:56:13 51°13.638 2°56.015 124.9 -999 235 -999
2011-07-15 04:56:18 51°13.638 2°56.016 124.8 -999 15 -999
2011-07-15 04:56:23 51°13.638 2°56.016 124.6 -999 337 -999
2011-07-15 04:56:29 51°13.638 2°56.016 124.5 -999 227 -999
2011-07-15 04:56:33 51°13.637 2°56.016 124.4 0.1 160 -999
2011-07-15 04:56:38 51°13.638 2°56.016 124.3 0.1 109 -999
2011-07-15 04:56:43 51°13.638 2°56.016 124.3 0.1 145 -999
2011-07-15 04:56:48 51°13.637 2°56.015 124.5 0.1 207 -999
2011-07-15 04:56:53 51°13.638 2°56.015 124.8 -999 334 -999
2011-07-15 04:56:58 51°13.638 2°56.015 124.8 -999 312 -999
2011-07-15 04:57:03 51°13.638 2°56.015 124.8 0.1 158 -999
2011-07-15 04:57:08 51°13.638 2°56.015 124.8 0.1 145 -999
2011-07-15 04:57:13 51°13.638 2°56.015 124.8 -999 187 -999
2011-07-15 04:57:19 51°13.638 2°56.015 124.5 -999 52 -999
2011-07-15 04:57:24 51°13.638 2°56.015 124.4 -999 18 -999
2011-07-15 04:57:29 51°13.638 2°56.014 124.2 0.1 326 -999
2011-07-15 04:57:34 51°13.638 2°56.015 124.1 -999 267 -999
2011-07-15 04:57:38 51°13.638 2°56.015 124 -999 66 -999
2011-07-15 04:57:44 51°13.638 2°56.015 123.9 -999 27 -999
2011-07-15 04:57:49 51°13.638 2°56.015 123.9 -999 339 -999
2011-07-15 04:57:53 51°13.638 2°56.015 123.9 -999 329 -999
2011-07-15 04:57:59 51°13.638 2°56.015 123.9 -999 212 -999
2011-07-15 04:58:04 51°13.638 2°56.015 124 -999 272 -999
2011-07-15 04:58:08 51°13.638 2°56.015 124 0.1 202 -999
2011-07-15 04:58:13 51°13.638 2°56.015 124 0.1 145 -999
2011-07-15 04:58:19 51°13.638 2°56.015 124 0.1 150 -999
2011-07-15 04:58:23 51°13.638 2°56.015 124 0.1 204 -999
2011-07-15 04:58:28 51°13.638 2°56.015 124.1 -999 81 -999
2011-07-15 04:58:34 51°13.638 2°56.015 124.2 -999 343 -999
2011-07-15 04:58:39 51°13.638 2°56.015 124.2 -999 229 -999
2011-07-15 04:58:43 51°13.638 2°56.015 124.2 -999 166 -999
2011-07-15 04:58:48 51°13.638 2°56.015 124.3 -999 345 -999
2011-07-15 04:58:54 51°13.638 2°56.014 124.3 0.1 313 -999
2011-07-15 04:58:59 51°13.638 2°56.015 124.4 -999 178 -999
2011-07-15 04:59:03 51°13.638 2°56.015 124.4 -999 135 -999
2011-07-15 04:59:09 51°13.638 2°56.015 124.5 -999 59 -999
2011-07-15 04:59:14 51°13.638 2°56.015 124.5 -999 90 -999
2011-07-15 04:59:18 51°13.637 2°56.015 124.7 -999 283 -999
2011-07-15 04:59:23 51°13.637 2°56.015 124.9 0.1 217 -999
2011-07-15 04:59:29 51°13.637 2°56.015 125.1 0.1 204 -999
2011-07-15 04:59:33 51°13.637 2°56.015 125.2 0.1 196 -999